Regional Weather Roundup
Issued by NWS

Home | Current Version | Previous Version | Graphics & Text | Print | Product List | Glossary On
Versions: 1 2 3 4 5 6 7 8 9 10 11 12 13 14 15 16 17 18 19 20 21 22 23 24 25 26 27 28 29 30 31 32 33 34 35 36 37 38 39 40 41 42 43 44 45 46 47 48 49 50
492
ASUS43 KMKX 301912
RWRWI

WISCONSIN REGIONAL WEATHER ROUNDUP
NATIONAL WEATHER SERVICE MILWAUKEE/SULLIVAN WI
200 PM CDT SUN APR 30 2017

NOTE: "FAIR" INDICATES FEW OR NO CLOUDS BELOW 12,000 FEET WITH NO
SIGNIFICANT WEATHER AND/OR OBSTRUCTIONS TO VISIBILITY.

WIZ001-002-006>008-014>016-023>028-302000-
NORTHWEST WISCONSIN

CITY           SKY/WX    TMP DP  RH WIND       PRES   REMARKS
SUPERIOR ARPT  CLOUDY    40  33  75 E15G25    30.09F WCI  32
ASHLAND        CLOUDY    42  32  67 NE17G28   30.08F
HAYWARD        LGT RAIN  44  33  65 NE16      30.00F
SIREN          LGT RAIN  46  30  52 E6        29.99F
CUMBERLAND     LGT RAIN  43  32  65 N10       29.95F
RICE LAKE      LGT RAIN  46  34  62 N12       29.97F
CHETEK         DRIZZLE   47  32  56 NE8G16    29.95F
LADYSMITH      CLOUDY    50  31  47 NE12      29.96F
EAU CLAIRE     CLOUDY    49  35  58 E16       29.90F
MENOMONIE      CLOUDY    48  33  55 NE8G17    29.91F
NEW RICHMOND   CLOUDY    44  35  70 NE17      29.94F
OSCEOLA        LGT RAIN  44  37  77 NE13G18   29.97F
$$

WIZ003>005-009-010-017-018-302000-
NORTH CENTRAL WISCONSIN

CITY           SKY/WX    TMP DP  RH WIND       PRES   REMARKS
MANITOWISH WTR CLOUDY    50  25  38 NE12G20   29.97F
ARBOR VITAE    CLOUDY    52  24  33 E6G16     29.96F
WOODRUFF       CLOUDY    52  24  33 E6G16     29.96F
RHINELANDER    CLOUDY    50  29  44 E13       29.97F
EAGLE RIVER    CLOUDY    50  19  29 E16       29.97F
LAND O LAKES   CLOUDY    52  23  32 NE9G16    29.99F
PHILLIPS       CLOUDY    49  29  46 NE16      29.95F
TOMAHAWK       CLOUDY    49  32  51 E10G16    29.95F
MEDFORD        CLOUDY    47  34  61 E20       29.91F
MERRILL        CLOUDY    47  34  60 E13G18    29.95F
$$

WIZ029-030-035-036-043>047-302000-
CENTRAL WISCONSIN

CITY           SKY/WX    TMP DP  RH WIND       PRES   REMARKS
WAUSAU         CLOUDY    45  35  68 E16       29.92F
MOSINEE        CLOUDY    45  36  70 E14G22    29.93F
MARSHFIELD     CLOUDY    47  35  63 E15G23    29.88F
STEVENS POINT  CLOUDY    40  36  86 NE14G20   29.92F WCI  32
WAUPACA        CLOUDY    42  38  88 NE14G20   29.93F
WAUTOMA        CLOUDY    41  38  89 NE13      29.90F
WISC RAPIDS    CLOUDY    43  38  82 E16G25    29.91F
CAMP DOUGLAS   CLOUDY    45  37  76 E15G29    29.87F
$$

WIZ011>013-019>022-031-037>040-048>050-302000-
NORTHEAST WISCONSIN

CITY           SKY/WX    TMP DP  RH WIND       PRES   REMARKS
ANTIGO         CLOUDY    42  34  73 E13G18    29.96F
SHAWANO        CLOUDY    41  38  89 NE15G24   29.99F FOG
OCONTO         CLOUDY    37  36  94 NE14G23   30.01F WCI  29
STURGEON BAY   LGT RAIN  37  35  92 NE15G24   30.00F FOG     WCI  28
GREEN BAY      CLOUDY    41  40  96 NE22      29.97F FOG
MANITOWOC      CLOUDY    39  37  92 NE13G25   29.95F WCI  31
APPLETON       DRIZZLE   39  39 100 NE14G22   29.92F WCI  31
CLINTONVILLE   CLOUDY    39  36  87 E15G23    29.96F WCI  31
OSHKOSH        CLOUDY    41  37  86 NE16G25   29.91F
$$

WIZ032>034-041-042-053>061-302000-
SOUTHWEST WISCONSIN

CITY           SKY/WX    TMP DP  RH WIND       PRES   REMARKS
LA CROSSE      CLOUDY    46  39  76 NE14G25   29.87F
SPARTA         CLOUDY    43  39  86 E13G18    29.88S
VIROQUA        CLOUDY    42  39  92 E20       29.84F
BOSCOBEL       CLOUDY    46  39  76 NE10G23   29.84F
PRAIRIE DU CHI CLOUDY    45  37  76 NE16      29.82F
PLATTEVILLE    CLOUDY    45  43  91 NE17G24   29.80S
$$

WIZ056-057-062-063-064-067-068-302000-
SOUTH CENTRAL WISCONSIN

CITY           SKY/WX    TMP DP  RH WIND       PRES   REMARKS
REEDSBURG      NOT AVBL
BARABOO/DELLS  CLOUDY    41  38  88 E14G24    29.86F
LONE ROCK      CLOUDY    45  39  79 E21G26    29.85F
MINERAL POINT  CLOUDY    45  43  93 NE20      29.80F
MADISON        CLOUDY    44  40  85 NE16      29.85F
MIDDLETON      CLOUDY    45  41  86 NE14G25   29.85F
WATERTOWN      CLOUDY    43  43 100 NE15G24   29.85F
MONROE         CLOUDY    43  41  93 NE22      29.80S
JANESVILLE     CLOUDY    46  45  93 NE17      29.81F
$$

WIZ051-052-058>065-066-070>072-302000-
SOUTHEAST WISCONSIN

CITY           SKY/WX    TMP DP  RH WIND       PRES   REMARKS
MILWAUKEE      LGT RAIN  42  41  96 N16G28    29.87F FOG
WAUKESHA       LGT RAIN  41  39  93 NE17      29.86F FOG
MILWAUKEE/TIMM DRIZZLE   41  37  87 NE18G25   29.89F FOG
RACINE         LGT RAIN  42  40  92 N16G28    29.87F FOG
KENOSHA        LGT RAIN  44  42  93 NE16G23   29.85S FOG
FOND DU LAC    LGT RAIN  41  37  86 NE14      29.90F FOG
SHEBOYGAN      LGT RAIN  41  39  93 NE23G29   29.92F FOG
WEST BEND      CLOUDY    41  39  93 NE20G25   29.88F
JUNEAU         CLOUDY    41  39  94 NE12      29.88F FOG
$$

LSZ147-162-302000-
LAKE SUPERIOR

STATION/POSITION TIME  TEMP    WIND        PRES    WAVE
                       AIR SEA DIR/SP/G            HT/PER
                 (UTC) (F)     (DEG/KT/KT) (MB)    (FT/S)
DEVILS ISLAND    1900   38      40/ 23/ 25 1020.1F
PORT WING        1840   38      40/ 20/ 22 1019.0F
SAXON HARBOR     1840   39      30/ 11/ 13 1017.9F
$$

LMZ867-665-643>646-302000-
LAKE MICHIGAN

STATION/POSITION TIME  TEMP    WIND        PRES    WAVE
                       AIR SEA DIR/SP/G            HT/PER
                 (UTC) (F)     (DEG/KT/KT) (MB)    (FT/S)
CHAMBERS ISLAND  1840   36      30/ 19/ 23 1016.6F
N MID LAKE BUOY  1850   36 37   60/ 21/ 25 1018.0F   5/ 6
NORTHPORT PIER   1840   37      50/ 16/ 21 1017.6S
KEWAUNEE LAKESHO 1848   38      40/ 20/ 27 1014.9F
SHEBOYGAN LAKESH 1900   39      20/ 25/ 29 1013.6F
PORT WASHINGTON  1740   41      30/ 12/ 22 1014.6F
MILWAUKEE LAKESH 1850   40      20/ 21/ 24   N/A
S MID LAKE BUOY  1850   41 41   20/ 17/ 19 1010.4F   4/ 6
KENOSHA   LAKESH 1900   42      10/ 23/ 27 1010.5
$$

TC  - TEMPERATURE IN CELSIUS
VSB - VISIBILITY IN STATUTE MILES
WCI - WIND CHILL INDEX
HX  - HEAT INDEX





USA.gov is the U.S. government's official web portal to all federal, state and local government web resources and services.